Location: Milton Keynes
(52.0316°N, 0.7531°W)
Time: 11:28:51
(UTC+01:00)

Envisat - Pass Details

Date: 25 January 2019
Orbit: 764 x 766 km, 98.2° (Epoch: 19 April)

Event Time Altitude Azimuth Distance (km) Brightness Sun altitude
Rises 06:57:08 0° 21° (NNE) 3,248 6.3 -8.7°
Reaches altitude 10° 06:59:41 10° 31° (NNE) 2,317 5.6 -8.3°
Maximum altitude 07:04:14 32° 94° (E) 1,303 5.1 -7.7°
Drops below altitude 10° 07:08:46 10° 157° (SSE) 2,302 6.2 -7.0°
Sets 07:11:17 0° 168° (SSE) 3,223 6.8 -6.7°
